F4FEB-13 Weather Reports


Display with metric or nautical units.
time (UTC)temp
F
wind
direction
speed
MPH
gust
MPH
rain 1hr
in
rain 24hr
in
rain mn
in
humidity
%
barometer
mb
20260503053425 58 248 4.0 10.0 0.00 0.00 0.00 55 1015.8
20260503052929 58 279 6.0 8.0 0.00 0.00 0.00 53 1015.7
20260503052925 58 279 6.0 8.0 0.00 0.00 0.00 53 1015.7
20260503052425 58 187 5.0 10.0 0.00 0.00 0.00 53 1015.6
20260503051925 58 244 6.0 15.0 0.00 0.00 0.00 54 1015.6
20260503051430 58 177 6.0 17.0 0.00 0.00 0.00 53 1015.7
20260503051425 58 177 6.0 17.0 0.00 0.00 0.00 53 1015.7
20260503050925 57 185 12.0 15.0 0.00 0.00 0.00 52 1015.7
20260503050425 57 222 11.0 13.0 0.00 0.00 0.00 53 1015.6
20260503045928 57 247 7.0 8.0 0.00 0.00 0.00 55 1015.6
20260503045925 57 247 7.0 8.0 0.00 0.00 0.00 55 1015.6
20260503045425 57 236 3.0 8.0 0.00 0.00 0.00 56 1015.7
20260503044925 57 274 3.0 6.0 0.00 0.00 0.00 55 1015.8
20260503044429 56 289 5.0 8.0 0.00 0.00 0.00 56 1015.8
20260503044425 56 289 5.0 8.0 0.00 0.00 0.00 56 1015.8
20260503043925 56 250 3.0 7.0 0.00 0.00 0.00 58 1015.9
20260503043425 55 225 0.0 5.0 0.00 0.00 0.00 62 1015.7
20260503042928 55 198 0.0 5.0 0.00 0.00 0.00 62 1015.6
20260503042925 55 198 0.0 5.0 0.00 0.00 0.00 62 1015.6
20260503042425 54 178 5.0 6.0 0.00 0.00 0.00 64 1015.6
20260503041925 54 302 1.0 3.0 0.00 0.00 0.00 68 1015.6
20260503041428 55 168 1.0 2.0 0.00 0.00 0.00 66 1015.7
20260503041425 55 168 1.0 2.0 0.00 0.00 0.00 66 1015.7
20260503040925 55 337 0.0 0.0 0.00 0.00 0.00 66 1015.6
20260503040425 54 337 0.0 4.0 0.00 0.00 0.00 66 1015.7
20260503035928 54 316 2.0 4.0 0.00 0.00 0.00 67 1015.7
20260503035926 54 316 2.0 4.0 0.00 0.00 0.00 67 1015.7
20260503035426 54 300 0.0 0.0 0.00 0.00 0.00 69 1015.8
20260503034926 54 300 0.0 3.0 0.00 0.00 0.00 70 1015.7
20260503034426 53 338 3.0 3.0 0.00 0.00 0.00 69 1015.7
20260503033926 53 7 0.0 0.0 0.00 0.00 0.00 71 1015.8
20260503033426 52 7 0.0 0.0 0.00 0.00 0.00 71 1015.8
20260503032926 52 7 0.0 0.0 0.00 0.00 0.00 71 1015.8
20260503032426 52 7 0.0 2.0 0.00 0.00 0.00 71 1015.7
20260503031926 52 348 1.0 2.0 0.00 0.00 0.00 72 1015.8
20260503031426 52 350 1.0 3.0 0.00 0.00 0.00 72 1015.9
20260503030926 52 305 1.0 4.0 0.00 0.00 0.00 73 1015.9
20260503030426 52 286 0.0 2.0 0.00 0.00 0.00 72 1016.0
20260503025926 52 309 2.0 2.0 0.00 0.00 0.00 72 1016.0
20260503025426 53 261 0.0 0.0 0.00 0.00 0.00 69 1016.0
20260503024926 54 261 0.0 0.0 0.00 0.00 0.00 67 1015.8
20260503024426 55 261 0.0 5.0 0.00 0.00 0.00 65 1015.9
20260503023926 55 316 5.0 5.0 0.00 0.00 0.00 64 1015.8
20260503023426 55 329 5.0 7.0 0.00 0.00 0.00 63 1015.8
20260503022926 54 329 5.0 5.0 0.00 0.00 0.00 67 1015.8
20260503022426 54 329 3.0 4.0 0.00 0.00 0.00 67 1015.8
20260503021926 54 331 3.0 3.0 0.00 0.00 0.00 67 1015.8
20260503021426 54 345 2.0 2.0 0.00 0.00 0.00 67 1015.8
20260503020926 53 1 0.0 2.0 0.00 0.00 0.00 68 1015.8
20260503020426 53 333 2.0 2.0 0.00 0.00 0.00 69 1015.9
20260503015926 53 358 1.0 2.0 0.00 0.00 0.00 70 1015.9
20260503015426 53 343 1.0 2.0 0.00 0.00 0.00 70 1016.0
20260503014926 53 326 2.0 2.0 0.00 0.00 0.00 69 1016.1
20260503014426 54 292 0.0 0.0 0.00 0.00 0.00 66 1016.0
20260503013926 55 292 0.0 0.0 0.00 0.00 0.00 64 1016.0
20260503013426 56 292 0.0 0.0 0.00 0.00 0.00 63 1016.1
20260503012926 56 292 0.0 0.0 0.00 0.00 0.00 63 1016.1
20260503012426 56 292 0.0 0.0 0.00 0.00 0.00 64 1016.2
20260503011926 56 302 0.0 0.0 0.00 0.00 0.00 64 1016.1
20260503011426 56 302 0.0 0.0 0.00 0.00 0.00 63 1016.2
20260503010926 57 302 0.0 0.0 0.00 0.00 0.00 61 1016.3
20260503010426 57 302 0.0 3.0 0.00 0.00 0.00 61 1016.3
20260503005926 57 323 3.0 5.0 0.00 0.00 0.00 61 1016.4
20260503005426 57 315 3.0 3.0 0.00 0.00 0.00 61 1016.3
20260503004926 56 272 2.0 3.0 0.00 0.00 0.00 61 1016.2
20260503004426 57 302 1.0 3.0 0.00 0.00 0.00 61 1016.3
20260503003926 57 285 0.0 2.0 0.00 0.00 0.00 61 1016.3
20260503003426 58 210 0.0 3.0 0.00 0.00 0.00 59 1016.5
20260503002926 58 274 2.0 4.0 0.00 0.00 0.00 58 1016.5
20260503002426 59 288 2.0 6.0 0.00 0.00 0.00 57 1016.6
20260503001926 59 199 2.0 9.0 0.00 0.00 0.00 56 1016.6
20260503001426 59 277 4.0 11.0 0.00 0.00 0.00 56 1016.4
20260503000926 59 303 7.0 10.0 0.00 0.00 0.00 56 1016.3
20260503000426 61 330 3.0 4.0 0.00 0.00 0.00 53 1016.4
20260502235926 61 132 3.0 7.0 0.00 0.00 0.00 50 1016.7
20260502235426 61 250 4.0 8.0 0.00 0.00 0.00 50 1017.1
20260502234926 61 274 5.0 9.0 0.00 0.00 0.00 50 1017.1
20260502234426 61 239 0.0 10.0 0.00 0.00 0.00 49 1017.3
20260502233926 61 309 2.0 8.0 0.00 0.00 0.00 49 1017.3
20260502233426 61 258 3.0 10.0 0.00 0.00 0.00 50 1017.3
20260502232926 61 202 8.0 11.0 0.00 0.00 0.00 51 1017.3
20260502232426 61 181 5.0 8.0 0.00 0.00 0.00 51 1017.1
20260502231926 61 178 6.0 10.0 0.00 0.00 0.00 51 1017.2
20260502231426 61 212 6.0 11.0 0.00 0.00 0.00 50 1017.1
20260502230926 61 229 4.0 10.0 0.00 0.00 0.00 50 1016.9
20260502230426 61 225 6.0 10.0 0.00 0.00 0.00 50 1016.9
20260502225926 61 209 7.0 11.0 0.00 0.00 0.00 49 1016.9
20260502225426 61 170 5.0 10.0 0.00 0.00 0.00 50 1017.1
20260502224926 61 226 5.0 11.0 0.00 0.00 0.00 51 1017.1
20260502224426 61 171 4.0 11.0 0.00 0.00 0.00 51 1017.2
20260502223926 61 234 7.0 9.0 0.00 0.00 0.00 51 1017.1
20260502223426 61 274 4.0 14.0 0.00 0.00 0.00 51 1017.2
20260502222929 61 210 10.0 13.0 0.00 0.00 0.00 51 1017.2
20260502222926 61 210 10.0 13.0 0.00 0.00 0.00 51 1017.2
20260502222426 60 188 10.0 13.0 0.00 0.00 0.00 52 1017.1
20260502221926 60 157 5.0 12.0 0.00 0.00 0.00 53 1017.2
20260502221430 60 262 4.0 6.0 0.00 0.00 0.00 53 1017.3
20260502221426 60 262 4.0 6.0 0.00 0.00 0.00 53 1017.3
20260502220926 60 237 3.0 8.0 0.00 0.00 0.00 53 1017.3
20260502220426 60 187 3.0 7.0 0.00 0.00 0.00 53 1017.3
20260502215929 61 268 3.0 7.0 0.00 0.00 0.00 52 1017.4
20260502215926 61 268 3.0 7.0 0.00 0.00 0.00 52 1017.4
20260502215426 61 244 5.0 7.0 0.00 0.00 0.00 52 1017.4
20260502214926 61 270 4.0 6.0 0.00 0.00 0.00 51 1017.4
20260502214429 61 271 2.0 10.0 0.00 0.00 0.00 51 1017.5
20260502214426 61 271 2.0 10.0 0.00 0.00 0.00 51 1017.5
20260502213926 61 248 7.0 10.0 0.00 0.00 0.00 51 1017.4
20260502213426 60 202 3.0 10.0 0.00 0.00 0.00 53 1017.4
20260502212930 60 226 5.0 8.0 0.00 0.00 0.00 54 1017.4
20260502212926 60 226 5.0 8.0 0.00 0.00 0.00 54 1017.4
20260502212426 60 225 5.0 6.0 0.00 0.00 0.00 54 1017.4
20260502211926 60 240 5.0 7.0 0.00 0.00 0.00 54 1017.4
20260502211430 59 222 5.0 5.0 0.00 0.00 0.00 54 1017.4
20260502211426 59 222 5.0 5.0 0.00 0.00 0.00 54 1017.4
20260502210926 59 199 1.0 4.0 0.00 0.00 0.00 54 1017.4
20260502210426 60 264 2.0 2.0 0.00 0.00 0.00 54 1017.5
20260502205930 60 220 0.0 3.0 0.00 0.00 0.00 53 1017.5
20260502205926 60 220 0.0 3.0 0.00 0.00 0.00 53 1017.5
20260502205426 60 171 0.0 8.0 0.00 0.00 0.00 52 1017.5
20260502204926 60 250 4.0 4.0 0.00 0.00 0.00 53 1017.5
20260502204429 59 253 3.0 4.0 0.00 0.00 0.00 54 1017.5
20260502204426 59 253 3.0 4.0 0.00 0.00 0.00 54 1017.5
20260502203926 59 288 2.0 3.0 0.00 0.00 0.00 55 1017.5
20260502203426 59 267 2.0 4.0 0.00 0.00 0.00 55 1017.5
20260502202926 59 298 0.0 0.0 0.00 0.00 0.00 55 1017.6
20260502202426 59 298 0.0 0.0 0.00 0.00 0.00 55 1017.6
20260502201927 59 298 0.0 0.0 0.00 0.00 0.00 55 1017.6
20260502201431 58 298 0.0 0.0 0.00 0.00 0.00 55 1017.7
20260502201427 58 298 0.0 0.0 0.00 0.00 0.00 55 1017.7
20260502200927 58 298 0.0 0.0 0.00 0.00 0.00 56 1017.7
20260502200427 58 298 0.0 0.0 0.00 0.00 0.00 58 1017.7
20260502195927 58 298 0.0 0.0 0.00 0.00 0.00 59 1017.6
20260502195427 58 298 0.0 0.0 0.00 0.00 0.00 58 1017.6
20260502194927 58 298 0.0 0.0 0.00 0.00 0.00 58 1017.6
20260502194430 59 298 0.0 0.0 0.00 0.00 0.00 57 1017.5
20260502194427 59 298 0.0 0.0 0.00 0.00 0.00 57 1017.5
20260502193927 59 298 0.0 0.0 0.00 0.00 0.00 57 1017.6
20260502193427 59 298 0.0 0.0 0.00 0.00 0.00 57 1017.5
20260502192930 59 298 0.0 1.0 0.00 0.00 0.00 58 1017.5
20260502192927 59 298 0.0 1.0 0.00 0.00 0.00 58 1017.5
20260502192427 59 265 0.0 0.0 0.00 0.00 0.00 59 1017.5
20260502191927 59 265 0.0 0.0 0.00 0.00 0.00 59 1017.5
20260502191430 60 265 0.0 0.0 0.00 0.00 0.00 57 1017.4
20260502191427 60 265 0.0 0.0 0.00 0.00 0.00 57 1017.4
20260502190927 60 265 0.0 0.0 0.00 0.00 0.00 54 1017.4
20260502190427 61 265 0.0 0.0 0.00 0.00 0.00 52 1017.4
20260502185927 62 265 0.0 0.0 0.00 0.00 0.00 49 1017.3
20260502185427 64 265 0.0 0.0 0.00 0.00 0.00 44 1017.3
20260502184927 64 265 0.0 1.0 0.00 0.00 0.00 42 1017.2
20260502184431 65 289 1.0 5.0 0.00 0.00 0.00 40 1017.2
20260502184427 65 289 1.0 5.0 0.00 0.00 0.00 40 1017.2
20260502183927 65 319 2.0 6.0 0.00 0.00 0.00 39 1017.1
20260502183427 65 316 2.0 7.0 0.00 0.00 0.00 38 1016.9
20260502182927 66 319 3.0 5.0 0.00 0.00 0.00 39 1016.9
20260502182427 66 279 3.0 8.0 0.00 0.00 0.00 39 1016.8
20260502181927 66 320 3.0 6.0 0.00 0.00 0.00 40 1016.8
20260502181431 66 310 2.0 7.0 0.00 0.00 0.00 42 1016.8
20260502181427 66 310 2.0 7.0 0.00 0.00 0.00 42 1016.8
20260502180927 66 299 3.0 9.0 0.00 0.00 0.00 44 1016.9
20260502180427 66 285 0.0 5.0 0.00 0.00 0.00 49 1016.8
20260502170427 70 305 0.0 0.0 0.00 0.00 0.00 52 1016.8
20260502163927 72 277 0.0 2.0 0.00 0.00 0.00 45 1017.1
20260502163427 72 192 0.0 4.0 0.00 0.00 0.00 42 1017.2
20260502162930 73 254 0.0 3.0 0.00 0.00 0.00 42 1017.3
20260502162927 73 254 0.0 3.0 0.00 0.00 0.00 42 1017.3
20260502162427 72 274 0.0 4.0 0.00 0.00 0.00 42 1017.3
20260502161927 72 295 0.0 2.0 0.00 0.00 0.00 42 1017.4
20260502161427 73 181 0.0 6.0 0.00 0.00 0.00 41 1017.5
20260502160927 72 282 4.0 6.0 0.00 0.00 0.00 41 1017.6
20260502160427 72 254 1.0 4.0 0.00 0.00 0.00 41 1017.6
20260502151927 72 293 1.0 7.0 0.00 0.00 0.00 42 1018.0
20260502151430 72 319 3.0 6.0 0.00 0.00 0.00 40 1018.0
20260502151427 72 319 3.0 6.0 0.00 0.00 0.00 40 1018.0
20260502150927 72 262 3.0 7.0 0.00 0.00 0.00 40 1018.1
20260502150427 72 333 4.0 7.0 0.00 0.00 0.00 41 1018.1
20260502130427 74 30 0.0 4.0 0.00 0.00 0.00 40 1019.2
20260502123428 73 330 5.0 8.0 0.00 0.00 0.00 39 1019.5
20260502122931 74 336 3.0 4.0 0.00 0.00 0.00 40 1019.5
20260502122928 74 336 3.0 4.0 0.00 0.00 0.00 40 1019.5
20260502122428 74 315 2.0 8.0 0.00 0.00 0.00 40 1019.4
20260502121928 74 298 4.0 5.0 0.00 0.00 0.00 39 1019.4
20260502121431 73 81 0.0 8.0 0.00 0.00 0.00 40 1019.6
20260502121428 73 81 0.0 8.0 0.00 0.00 0.00 40 1019.6
20260502120928 74 327 3.0 7.0 0.00 0.00 0.00 38 1019.6
20260502120428 73 319 3.0 9.0 0.00 0.00 0.00 40 1019.7
20260502115931 74 315 5.0 7.0 0.00 0.00 0.00 40 1019.7
20260502115928 74 315 5.0 7.0 0.00 0.00 0.00 40 1019.7
20260502115428 74 271 3.0 11.0 0.00 0.00 0.00 37 1019.8
20260502114928 74 151 3.0 10.0 0.00 0.00 0.00 40 1019.9
20260502114431 74 5 1.0 10.0 0.00 0.00 0.00 37 1019.9
20260502114428 74 5 1.0 10.0 0.00 0.00 0.00 37 1019.9
20260502113928 75 126 1.0 7.0 0.00 0.00 0.00 39 1020.0
20260502113428 75 187 3.0 6.0 0.00 0.00 0.00 37 1020.1
20260502112931 75 225 0.0 6.0 0.00 0.00 0.00 37 1020.1
20260502112928 75 225 0.0 6.0 0.00 0.00 0.00 37 1020.1
20260502112428 74 174 6.0 7.0 0.00 0.00 0.00 36 1020.2
20260502111928 74 282 3.0 7.0 0.00 0.00 0.00 38 1020.3
20260502111431 74 330 3.0 12.0 0.00 0.00 0.00 39 1020.3
20260502111428 74 330 3.0 12.0 0.00 0.00 0.00 39 1020.3
20260502110928 74 230 11.0 11.0 0.00 0.00 0.00 37 1020.4
20260502110428 73 56 0.0 9.0 0.00 0.00 0.00 35 1020.4
20260502105931 73 247 5.0 7.0 0.00 0.00 0.00 36 1020.5
20260502105928 73 247 5.0 7.0 0.00 0.00 0.00 36 1020.5
20260502105428 73 288 3.0 9.0 0.00 0.00 0.00 37 1020.7
20260502104928 72 192 4.0 5.0 0.00 0.00 0.00 47 1020.7
20260502104432 72 267 3.0 6.0 0.00 0.00 0.00 44 1020.8
20260502104428 72 267 3.0 6.0 0.00 0.00 0.00 44 1020.8
20260502103928 71 226 0.0 7.0 0.00 0.00 0.00 44 1020.9
20260502103428 70 303 0.0 3.0 0.00 0.00 0.00 50 1021.0
20260502102928 70 56 0.0 7.0 0.00 0.00 0.00 47 1021.0
20260502102428 69 309 6.0 7.0 0.00 0.00 0.00 51 1021.0
20260502101928 69 147 1.0 7.0 0.00 0.00 0.00 52 1021.1
20260502101428 69 341 6.0 7.0 0.00 0.00 0.00 53 1021.2
20260502100928 69 347 3.0 3.0 0.00 0.00 0.00 53 1021.2
20260502100428 68 15 0.0 5.0 0.00 0.00 0.00 56 1021.3
20260502091431 66 5 0.0 6.0 0.00 0.00 0.00 59 1021.7
20260502091428 66 5 0.0 6.0 0.00 0.00 0.00 59 1021.7
20260502090928 66 357 3.0 6.0 0.00 0.00 0.00 60 1021.7
20260502090428 66 347 1.0 4.0 0.00 0.00 0.00 61 1021.7
20260502071432 62 268 1.0 3.0 0.00 0.00 0.00 63 1022.2
20260502071428 62 268 1.0 3.0 0.00 0.00 0.00 63 1022.2
20260502070928 62 244 0.0 2.0 0.00 0.00 0.00 63 1022.2
20260502070428 62 254 2.0 2.0 0.00 0.00 0.00 63 1022.3
20260502065931 62 125 0.0 0.0 0.00 0.00 0.00 63 1022.3
20260502065928 62 125 0.0 0.0 0.00 0.00 0.00 63 1022.3
20260502065428 62 125 0.0 1.0 0.00 0.00 0.00 62 1022.2
20260502064928 62 170 1.0 2.0 0.00 0.00 0.00 62 1022.2
20260502064431 62 236 0.0 2.0 0.00 0.00 0.00 64 1022.2
20260502064428 62 236 0.0 2.0 0.00 0.00 0.00 64 1022.2
20260502063928 60 246 0.0 2.0 0.00 0.00 0.00 68 1022.2
20260502063428 58 278 0.0 2.0 0.00 0.00 0.00 72 1022.2
20260502062932 58 174 0.0 0.0 0.00 0.00 0.00 73 1022.2
20260502062928 58 174 0.0 0.0 0.00 0.00 0.00 73 1022.2
20260502062428 57 174 0.0 1.0 0.00 0.00 0.00 74 1022.2
20260502061928 57 160 0.0 1.0 0.00 0.00 0.00 75 1022.2
20260502061432 57 237 0.0 2.0 0.00 0.00 0.00 75 1022.3
20260502061428 57 237 0.0 2.0 0.00 0.00 0.00 75 1022.3
20260502060928 57 241 0.0 0.0 0.00 0.00 0.00 75 1022.3
20260502060428 57 241 0.0 2.0 0.00 0.00 0.00 75 1022.2
20260502055934 56 156 0.0 2.0 0.00 0.00 0.00 74 1022.2
20260502055928 56 156 0.0 2.0 0.00 0.00 0.00 74 1022.2
20260502055428 56 320 0.0 0.0 0.00 0.00 0.00 74 1022.2
20260502054928 56 320 0.0 1.0 0.00 0.00 0.00 75 1022.1
20260502054432 55 306 0.0 5.0 0.00 0.00 0.00 76 1022.1
20260502054428 55 306 0.0 5.0 0.00 0.00 0.00 76 1022.1
20260502053928 54 222 4.0 6.0 0.00 0.00 0.00 78 1022.0